Regional Weather Roundup
Issued by NWS Albany, NY

Home | Current Version | Previous Version | Graphics & Text | Print | Product List | Glossary On
Versions: 1 2 3 4 5 6 7 8 9 10 11 12 13 14 15 16 17 18 19 20 21 22 23 24 25 26 27 28 29 30 31 32 33 34 35 36 37 38 39 40 41 42 43 44 45 46 47 48 49 50
165
ASUS41 KALY 181110
RWRALY

NEW YORK STATE HOURLY WEATHER ROUNDUP
NATIONAL WEATHER SERVICE ALBANY NY
700 AM EDT WED OCT 18 2017

NOTE: "FAIR" INDICATES FEW OR NO CLOUDS BELOW 12,000 FEET WITH NO
SIGNIFICANT WEATHER AND/OR NO OBSTRUCTIONS TO VISIBILITY.

NYZ032-033-038>043-046>054-057>066-NYZ062>081-082-084-181200-
EAST


CITY           SKY/WX    TMP DP  RH WIND       PRES   REMARKS
ALBANY         PTCLDY    45  35  68 CALM      30.26R
GLENS FALLS    CLEAR     36  33  89 CALM      30.23R
POUGHKEEPSIE   CLEAR     47  36  65 CALM      30.28R
NEWBURGH       CLEAR     45  37  76 SW6       30.30R
MONTGOMERY     CLEAR     38  35  89 SW5       30.30R WCI  34
WHITE PLAINS   CLEAR     47  35  63 W6        30.28R
ISLIP          CLEAR     48  41  76 W5        30.30R
NEW YORK CITY  CLEAR     53  38  56 SW7       30.30R
CENTRAL PARK   CLEAR     51  37  58 VRB5      30.33R
$$

NYZ005>009-017-018-044>046-055-056-181200-
CENTRAL


CITY           SKY/WX    TMP DP  RH WIND       PRES   REMARKS
FULTON         CLEAR     48  42  80 SW3       30.23R
SYRACUSE       CLEAR     48  43  82 SW6       30.23R
ROME           CLEAR     37  36  96 CALM      30.26R
ELMIRA         CLEAR     41  39  93 W5        30.29R
BINGHAMTON     CLEAR     44  37  76 W9        30.27R
MONTICELLO     CLEAR     37  32  82 CALM      30.30R
$$

NYZ026>034-041>043-087-181200-
NORTH


CITY           SKY/WX    TMP DP  RH WIND       PRES   REMARKS
WATERTOWN      CLEAR     50  49  96 S6        30.20R
FORT DRUM      NOT AVBL
OGDENSBURG     FAIR      44  43  94 S5        30.18R
MASSENA        CLOUDY    49  48  97 SW7       30.19R
SARANAC LAKE   MOCLDY    48  45  89 W3        30.18R
PLATTSBURGH    CLEAR     49  44  83 S3        30.17R
$$

NYZ001>004-010>016-019>021-085-181200-
WEST


CITY           SKY/WX    TMP DP  RH WIND       PRES   REMARKS
NIAGARA FALLS  CLEAR     55  48  77 SW6       30.23R
BUFFALO        PTCLDY    50  45  83 S8        30.24R
DUNKIRK        CLEAR     52  44  74 S10       30.27R
JAMESTOWN      CLEAR     42  38  85 S8        30.30R
WELLSVILLE     CLEAR     47  37  68 W7        30.30R
ROCHESTER      PTCLDY    47  43  86 SW7       30.24R
$$

             KEY
       WCI = WIND CHILL INDEX
       VSB = VISIBILITY
       HX  = HEAT INDEX
$$




USA.gov is the U.S. government's official web portal to all federal, state and local government web resources and services.